CZ-2C R/B, 43084

Orbit data source: Space-Track

CZ-2C R/B, 43084 is space debris in LEO originally from a launch on Mon, 25 Dec 2017 UTC launched from the Xichang Space Center, China (XSC). Debris objects in space refer to the collection of defunct objects orbiting the Earth. Examples of debris include non-operational satellites, rocket bodies, and fragments generated from explosions, collisions, or faulty payload assembly.

Loading next visibility...
Identifier
43084, 2017-085D
Orbit
LEO
Country
Flag of CNCN / PRC
Related business
Manufacturer
CALT
Mission
Spacecraft
Bus & Motor
CZ-2 STAGE 2, Unknown motor
Mass
~3,800 kg wet, ~3,800 kg dry
Launch date (UTC)
2017-12-25 (8 years ago)
Launch vehicle
Unknown
Launch site
Xichang Space Center, China (XSC)
Object type
Payload
Rocket body
Debris
Shape & HBR
Cyl, 3.7 m
Radar Cross Section
23.715 m², Large (>1 m²)

Expand to show TLE details & history
Last TLE update: 2 days ago

TLE from 2 days ago
0 CZ-2C R/B
1 43084U 17085D   26171.41246919  .00009872  00000-0  23901-3 0  9997
2 43084  34.6575 217.1968 0050285  88.9396 271.7078 15.38906009469145
Epoch: 2026-06-20T09:53Z
TLE epoch observation values (Epoch: 2026-06-20T09:53:57.338Z)
Latitude
-0.00001°
Longitude
160.08042°
Altitude
447.356 km
Speed
7.647 km/s
True Right ascension
14h 28m 47s
True Declination
0° 00' 00"
Sunlit
Object was in full shadow at epoch
Visualization orbit readout
Latitude
Unknown
Longitude
Unknown
Altitude
Unknown
Speed
Unknown
Apparent Right ascension
Unknown
Apparent Declination
Unknown
Sunlit
N/A
Visualization observer readout
Local Sidereal Time
21:28:25
Azimuth
Unknown
Elevation
Unknown
Doppler factor
Unknown
Orbital elements
Apogee altitude
487.019 km
Perigee altitude
418.322 km
Semi-major axis
6,830.807 km
Eccentricity
0.00503
Inclination
34.6575°
RAAN
217.1968°
Arg. of periapsis
88.9396°
True anomaly
271.13173°
Mean anomaly
271.7078°
Eccentric anomaly
271.41978°
Mean motion
3.84446 °/min
Orbital period
93.64 mins
BSTAR
0.00023901
Loading maneuver chart data...
Computing Atmospheric mass density...
Loading historical data...
Loading historical data...
Loading historical data...
Loading historical data...
Loading historical data...
Loading historical data...
Loading historical data...
Other satellites on launch #85 in the year 2017 (2017-12-25 UTC)

Documentation

Showing up to 5 results
|